星链-3709 (STARLINK-3709 )

导读 | 星芒AI

STARLINK-3709 是 SpaceX Starlink 卫星互联网项目中的一颗低轨卫星,属于第二批部署的“Block 4”系列。该卫星于2021年发射,旨在为全球用户提供高速、低延迟的宽带互联网服务。Starlink 项目计划部署数千颗卫星,以构建覆盖全球的通信网络,尤其服务于偏远和网络基础设施薄弱的地区。STARLINK-3709 采用先进推进系统和激光通信技术,提高网络效率与稳定性,是 SpaceX 打造太空互联网愿景的重要组成部分。

基本信息
目录编号:
52102
目录名称:
STARLINK-3709
国际标识:
2022-029Q
轨道中心:
EARTH
卫星名称:
星链-3709
卫星全名:
星链-3709 (STARLINK-3709 )
卫星状态:
在轨 (已飞行1326 天)
发射日期:
2022-03-19 UTC
国别 :
美国 (US)
星等 :
--
轨道信息
数据来源 国际轨道数据
星历时间: 2025-11-04T12:55:48+0800
14小时前
查看轨道信息
半长轴: 6917.8km
偏心率: 0.0001453
轨道倾角: 53.217°
近地点辐角 116.020°
升交点赤经 282.440°
平近点角 244.094°
近地点: 538.659km
远地点: 540.671km
周期: 95.436分钟
每日圈数: 15.088664
详细信息
固有亮度:
5
最大亮度:
2.5
卫星平台:
Starlink v1.5
覆盖范围:
全球
运营商:
太空探索技术公司
运营商所在国:
美国
制造商(研发单位):
太空探索技术公司
制造商所在国:
美国
使用方式:
暂无
卫星简介
星链(Starlink)计划是由太空探索技术公司(SpaceX)提出的一个巨型低轨卫星互联网星座项目,计划在2019年至2024年间在太空搭建由约1.2万颗卫星组成的“星链”网络,其中1584颗将部署在地球上空550千米处的近地轨道,并从2020年开始工作。该卫星仍在工作。
2D轨道图
3D轨道图
轨道高度分析图
轨道倾角分析图
轨道综合分析图
查看轨道综合分析图